Hourly Data Report for September 15, 2017

All times are specified in Local Standard Time (LST). Add 1 hour to adjust for Daylight Saving Time where and when it is observed.

NORTH CAPE
PRINCE EDWARD ISLAND

47°03'29.000" N
63°59'55.000" W
7.60 m
8300516
71987
WNE

Download Data

Hourly Data (September 2017)
Hourly Data Report for September 15, 2017
Temp Definition
°C
Dew Point Temp Definition
°C
Rel Hum Definition
%
Wind Dir Definition
10's deg

Wind Spd Definition
km/h
Visibility Definition
km
Stn Press Definition
kPa
Hmdx Definition


Wind Chill Definition


Weather Definition


TIME
00:00 15.1 11.9 81 7 24   101.26     LegendNANA
01:00 15.1 11.5 79 8 20   101.32     LegendNANA
02:00 15.4 10.7 74 8 19   101.41     LegendNANA
03:00 15.1 10.0 72 7 23   101.45     LegendNANA
04:00 14.9 11.0 77 5 21   101.50     LegendNANA
05:00 14.8 8.5 66 2 20   101.59     LegendNANA
06:00 14.8 8.2 65 2 18   101.71     LegendNANA
07:00 14.8 8.4 66 2 18   101.77     LegendNANA
08:00 15.2 8.7 65 5 16   101.84     LegendNANA
09:00 15.8 8.0 60 4 11   101.94     LegendNANA
10:00 16.2 8.8 61 4 11   101.98     LegendNANA
11:00 16.7 9.4 62 5 7   101.99     LegendNANA
12:00 16.8 9.3 62 7 6   101.99     LegendNANA
13:00 17.1 9.6 61 8 7   101.96     LegendNANA
14:00 17.7 10.1 61 9 8   101.97     LegendNANA
15:00 17.5 9.7 60 11 11   101.95     LegendNANA
16:00 17.2 10.3 64 11 12   101.95     LegendNANA
17:00 16.8 10.4 66 13 14   101.97     LegendNANA
18:00 15.7 10.1 69 13 16   102.00     LegendNANA
19:00 15.5 10.7 73 14 19   101.98     LegendNANA
20:00 15.5 11.3 76 14 20   101.98     LegendNANA
21:00 15.4 11.2 76 15 20   101.93     LegendNANA
22:00 15.6 11.7 78 15 19   101.88     LegendNANA
23:00 15.8 12.3 80 16 18   101.84     LegendNANA

Notes on Data Quality.

Legend

  • E = Estimated
  • M = Missing
  • NA = Not Available
  • ‡ = Partner data that is not subject to review by the National Climate Archives
Date modified: